Probability
0 0 0 0 0 0 0 0 0 0 0 0 0 0 0 0 0 0 1 1 3 4 3 1 0 0 0 0 0 0 0 0 0 0 0 0 0 0 0 0 0 0 0
0 0 0 0 0 0 0 0 0 0 0 0 0 0 0 0 0 0 0 1 2 2 3 2 1 1 0 0 0 0 0 1 1 0 0 0 0 0 0 0 0 0 0
0 0 0 0 0 0 0 0 0 0 0 0 0 0 0 0 0 0 0 0 0 1 2 2 2 2 1 1 0 0 1 3 4 2 0 0 0 0 0 0 0 0 0
0 0 0 0 0 0 0 0 0 0 0 0 0 0 0 0 0 0 0 0 0 0 1 1 2 3 2 1 0 0 1 3 5 4 2 0 0 0 0 0 0 0 0
0 0 0 0 0 0 0 0 0 0 0 0 0 0 0 0 0 0 0 0 0 0 0 0 1 3 3 1 0 0 1 2 3 4 3 2 1 0 0 0 0 0 0
0 0 0 0 0 0 0 0 0 0 0 0 0 0 0 0 0 0 0 0 0 0 0 0 0 1 2 1 0 0 0 1 2 2 4 4 2 1 0 0 0 0 0
0 0 0 0 0 0 0 0 0 0 0 0 0 0 0 0 0 0 0 0 0 0 0 0 0 0 1 1 0 0 1 1 1 2 5 5 4 2 1 1 0 0 0
0 0 0 0 0 0 0 0 0 0 0 0 0 0 0 0 0 0 0 0 0 0 0 0 0 0 0 0 0 1 2 3 3 4 5 6 5 5 4 3 1 0 0
0 0 0 0 0 0 0 0 0 0 0 0 0 0 0 0 0 0 0 0 0 0 0 0 0 0 0 0 1 1 1 3 4 6 7 8 8 7 6 5 3 1 0
0 0 0 0 0 0 0 0 0 0 0 0 0 0 0 0 0 0 0 0 0 0 0 0 0 0 0 0 0 0 0 2 4 7 9 10 9 7 8 8 6 3 2
0 0 0 0 0 0 0 0 0 0 0 0 0 0 0 0 0 0 0 0 0 0 0 0 0 0 0 0 0 0 0 1 2 5 8 9 9 7 7 10 10 8 7
0 0 0 0 0 0 0 0 0 0 0 0 0 0 0 0 0 0 0 0 0 0 0 0 0 0 0 0 0 0 0 0 1 2 4 6 6 5 5 9 12 13 13
0 0 0 0 0 0 0 0 0 0 0 0 0 0 0 0 0 0 0 0 0 0 0 0 0 0 0 0 0 0 0 0 0 1 1 2 2 1 3 6 9 11 13
0 0 0 0 0 0 0 0 0 0 0 0 0 0 0 0 0 0 0 0 0 0 0 0 0 0 0 0 0 0 0 0 0 0 0 0 0 0 1 2 3 5 6
0 0 0 0 0 0 0 0 0 0 0 0 0 0 0 0 0 0 0 0 0 0 0 0 0 0 0 0 0 0 0 0 0 0 0 0 0 0 0 0 1 1 2
0 0 0 0 0 0 0 0 0 0 0 0 0 0 0 0 0 0 0 0 0 0 0 0 0 0 0 0 0 0 0 0 0 0 0 0 0 0 0 0 0 0 1
0 0 0 0 0 0 0 0 0 0 0 0 0 0 0 0 0 0 0 0 0 0 0 0 0 0 0 0 0 0 0 0 0 0 0 0 0 0 0 0 0 0 0
0 0 0 0 0 0 0 0 0 0 0 0 0 0 0 0 0 0 0 0 0 0 0 0 0 0 0 0 0 0 0 0 0 0 0 0 0 0 0 0 0 0 0
0 0 0 0 0 0 0 0 0 0 0 0 0 0 0 0 0 0 0 0 0 0 0 0 0 0 0 0 0 0 0 0 0 0 0 0 0 0 0 0 0 0 0
0 0 0 0 0 0 0 0 0 0 0 0 0 0 0 0 0 0 0 0 0 0 0 0 0 0 0 0 0 0 0 0 0 0 0 0 0 0 0 0 0 0 0
0 0 0 0 0 0 0 0 0 0 0 0 0 0 0 0 0 0 0 0 0 0 0 0 0 0 0 0 0 0 0 0 0 0 0 0 0 0 0 0 0 0 0
0 0 0 0 0 0 0 0 0 0 0 0 0 0 0 0 0 0 0 0 0 0 0 0 0 0 0 0 0 0 0 0 0 0 0 0 0 0 0 0 0 0 0
0 0 0 0 0 0 0 0 0 0 0 0 0 0 0 0 0 0 0 0 0 0 0 0 0 0 0 0 0 0 0 0 0 0 0 0 0 0 0 0 0 0 0
0 0 0 0 0 0 0 0 0 0 0 0 0 0 0 0 0 0 0 0 0 0 0 0 0 0 0 0 0 0 0 0 0 0 0 0 0 0 0 0 0 0 0
0 0 0 0 0 0 0 0 0 0 0 0 0 0 0 0 0 0 0 0 0 0 0 0 0 0 0 0 0 0 0 0 0 0 0 0 0 0 0 1 0 0 0
0 0 0 0 0 0 0 0 0 0 0 0 0 0 0 0 0 0 0 0 0 0 0 0 0 0 0 0 0 0 0 0 0 0 0 0 0 0 0 1 0 0 0
Wind_Speed
2 2 2 2 2 2 1 1 1 1 2 2 2 1 1 1 2 2 2 5 6 8 11 12 13 14 14 14 15 14 14 14 13 11 11 12 12 12 12 11 10 10 9
3 3 2 2 2 2 1 1 2 2 1 1 2 2 2 1 2 2 2 4 7 7 9 11 11 12 13 14 14 15 15 15 13 12 12 12 12 12 12 12 11 10 9
4 3 3 2 2 2 2 2 3 2 2 2 2 3 2 2 2 3 3 2 3 6 8 9 10 10 12 13 13 14 15 15 14 14 13 13 12 12 12 12 11 11 10
4 4 3 2 2 2 2 2 2 2 2 2 2 2 2 2 3 3 3 3 2 3 5 8 9 10 12 14 15 15 15 15 15 15 15 14 14 13 13 12 12 11 11
4 4 3 2 2 3 2 2 3 2 2 2 2 2 2 3 3 3 3 3 3 3 3 5 8 9 12 13 14 15 15 15 15 16 17 17 16 15 14 14 13 12 12
4 4 3 3 3 3 2 2 3 3 2 2 2 2 3 3 3 3 3 3 2 3 3 3 3 5 9 10 11 14 15 15 15 16 18 18 18 16 16 15 15 14 14
4 4 3 3 3 3 2 2 2 3 3 2 2 3 3 3 3 3 4 4 4 3 2 1 1 2 2 6 8 10 14 16 15 16 17 17 18 18 17 17 16 15 15
4 3 3 3 2 2 2 2 2 2 2 3 2 2 3 4 4 4 4 5 6 4 4 3 2 2 2 2 3 7 9 12 15 16 16 16 18 18 18 18 18 17 17
3 3 4 3 3 2 2 1 2 2 1 2 2 2 2 0 3 3 3 4 5 5 5 4 4 3 2 2 2 4 6 8 11 15 16 16 16 17 18 19 19 19 18
2 3 3 4 3 2 2 1 2 1 2 1 1 2 1 1 0 2 3 3 4 4 5 4 4 4 4 2 3 4 5 5 7 11 13 15 16 17 17 19 20 20 20
0 2 3 3 3 2 2 2 2 2 1 1 1 1 1 2 1 0 2 4 4 3 4 4 3 4 4 3 3 4 6 6 6 6 7 10 13 15 17 18 20 21 22
0 1 3 3 3 3 3 3 2 3 2 2 1 1 1 1 1 1 1 2 3 3 4 3 3 3 3 4 5 7 7 5 5 5 5 7 9 12 14 16 18 20 21
1 2 2 3 3 3 3 3 3 3 3 3 2 2 2 2 2 2 1 2 2 3 3 2 2 3 3 3 4 8 7 7 5 5 5 6 7 9 11 13 15 17 19
3 3 3 3 3 3 3 3 2 3 3 3 3 3 2 3 3 3 2 2 1 2 2 3 2 2 3 3 4 6 5 6 6 5 5 5 6 6 8 11 13 14 15
3 3 3 3 3 3 3 3 3 3 3 3 3 4 3 3 3 3 3 3 2 2 3 3 2 3 3 3 5 4 4 6 7 6 5 6 6 6 7 8 10 12 14
3 4 4 4 3 3 3 3 3 3 3 3 3 4 4 3 3 3 4 4 4 4 4 3 3 4 4 5 5 4 5 8 7 7 6 7 7 7 8 9 10 11 12
5 5 5 4 4 4 4 4 4 4 4 4 4 4 5 4 3 3 3 4 4 5 6 5 3 3 4 6 5 4 4 5 5 7 8 8 9 9 9 10 10 11 12
5 5 5 5 5 5 4 5 5 5 5 6 5 5 6 4 5 4 4 5 5 6 6 7 4 4 5 5 5 5 5 4 5 7 9 9 9 10 10 10 10 11 12
6 5 5 6 6 5 5 6 6 6 6 6 6 6 7 5 6 5 5 5 5 5 6 6 6 4 4 4 4 4 5 4 5 6 8 8 9 9 10 10 10 10 11
6 6 6 6 6 6 6 6 6 6 7 7 7 7 7 7 7 7 6 7 6 5 5 6 6 5 5 4 4 4 5 4 4 5 5 6 7 8 9 10 10 11 11
7 6 6 6 6 6 6 7 7 7 7 7 7 7 8 9 11 8 6 6 6 5 5 5 6 5 5 4 4 3 5 5 5 4 4 4 4 4 5 7 9 10 11
6 6 7 7 7 7 9 11 8 7 7 8 8 8 8 9 11 12 12 12 10 8 8 6 6 7 8 7 5 5 4 4 4 2 3 4 3 5 5 5 8 10 11
6 7 7 7 8 9 12 12 12 8 8 8 9 8 8 8 9 8 9 11 11 12 13 9 10 10 9 7 6 7 6 6 7 4 3 6 4 6 6 7 10 12 13
6 7 7 8 8 10 12 13 13 9 9 10 10 10 10 10 9 9 8 8 9 9 10 9 10 11 10 9 8 8 8 7 7 6 5 6 5 6 7 6 10 13 13
6 6 6 8 9 10 12 13 12 7 8 11 11 10 11 11 12 11 9 9 10 9 10 12 13 12 13 12 9 6 6 6 7 6 5 5 5 5 6 7 8 11 12
7 7 7 8 9 10 12 13 12 6 8 9 9 9 13 14 14 12 10 9 11 11 8 7 7 8 9 9 10 10 8 8 7 6 5 6 5 4 5 4 4 4 6
Wind_Direction
104 88 69 56 48 44 53 49 39 29 19 11 360 346 303 290 276 256 269 268 246 229 219 209 204 202 203 200 199 196 194 193 188 186 186 184 181 179 180 180 176 173 172
114 105 85 66 51 42 52 65 61 57 39 25 4 347 319 299 286 278 266 275 263 245 225 218 213 208 209 208 207 204 201 199 194 191 192 191 188 186 187 187 183 180 178
118 112 97 77 54 50 65 67 55 50 42 26 4 347 335 310 293 283 273 256 265 255 239 226 220 217 218 218 217 214 209 205 199 196 196 196 194 191 190 190 189 186 183
119 110 99 84 66 62 65 75 53 54 36 21 357 340 339 321 311 295 281 267 256 256 251 240 233 227 227 225 223 222 217 211 205 201 201 200 199 197 195 193 192 190 189
119 111 104 94 83 69 55 64 54 54 34 3 336 345 349 341 331 326 313 292 269 253 248 252 250 240 235 233 230 229 226 220 212 207 206 206 205 203 200 198 197 195 194
123 113 106 98 90 79 59 55 64 49 37 347 341 358 349 352 354 3 350 339 317 282 254 251 253 249 243 239 235 232 230 226 222 216 213 212 210 207 205 203 201 200 198
128 123 116 107 93 89 79 71 76 55 29 360 18 359 350 1 18 27 18 21 13 353 334 285 261 250 254 251 244 237 232 229 225 223 220 216 214 211 207 206 205 204 202
148 146 140 132 118 105 81 68 75 79 32 24 57 55 7 354 356 10 15 29 21 18 18 7 345 307 277 265 263 255 244 238 232 228 226 221 219 215 210 209 207 207 206
167 161 157 146 140 129 122 105 95 104 80 26 39 105 107 327 319 334 359 13 10 20 14 6 13 359 331 289 277 272 263 248 238 231 227 224 221 219 215 213 210 209 209
174 175 170 164 158 149 151 157 125 111 116 71 24 36 78 153 107 331 331 349 356 13 6 4 4 359 352 332 306 296 286 270 250 238 230 227 225 221 218 218 217 215 213
213 189 175 168 167 167 172 161 139 134 132 146 136 89 70 55 69 125 317 331 338 337 342 343 351 356 355 349 328 318 304 290 273 260 243 231 228 227 223 222 224 222 219
257 200 169 171 176 180 185 181 171 168 173 168 169 168 162 158 172 164 248 301 313 310 320 325 345 350 352 355 347 347 336 316 290 275 266 249 235 232 231 229 229 229 226
209 210 179 181 187 197 197 182 180 189 189 190 195 203 204 209 186 176 198 257 288 302 314 311 313 329 344 349 341 345 348 346 324 290 270 264 255 240 235 233 232 232 231
208 204 192 197 203 202 199 187 194 204 199 208 216 209 213 222 203 196 194 197 280 298 292 288 304 300 324 328 322 333 331 333 332 314 289 274 268 259 249 241 235 233 233
207 201 197 202 209 208 204 193 211 219 210 221 229 226 227 231 216 216 211 199 207 269 286 277 283 295 306 304 302 311 310 311 314 307 295 285 275 265 257 252 245 236 233
203 195 203 210 216 217 211 202 219 226 223 233 228 231 237 238 229 219 215 214 212 223 255 261 256 275 291 295 296 298 294 300 298 296 288 280 273 267 260 254 249 242 234
201 203 209 213 220 225 218 211 227 230 234 245 242 236 246 242 240 234 220 217 217 214 246 267 254 265 272 279 293 293 287 284 285 283 282 276 269 263 259 255 250 244 239
208 208 209 216 226 229 222 221 236 235 234 244 248 243 251 248 243 241 231 231 230 221 234 266 270 262 257 269 277 285 286 282 276 277 274 271 265 261 257 255 251 246 242
210 210 209 219 228 231 230 231 234 241 241 243 245 243 249 244 249 245 239 242 243 239 230 250 269 262 263 264 274 277 279 278 279 276 272 268 264 263 258 252 249 246 243
210 214 216 223 230 233 236 238 237 242 246 248 246 244 246 241 245 248 247 245 244 246 242 248 263 267 265 262 254 266 278 273 280 284 277 273 268 268 262 255 250 246 244
215 216 220 230 233 234 238 237 237 241 244 252 253 248 246 246 246 244 244 245 240 243 247 251 261 266 264 257 252 250 266 279 275 261 272 269 267 269 267 261 258 252 247
216 216 223 230 236 238 241 239 235 239 242 247 254 256 254 256 257 255 252 248 236 237 244 247 254 257 263 258 255 250 257 270 277 243 245 267 260 267 267 262 258 255 252
216 222 230 231 238 244 246 248 245 239 242 245 248 253 257 253 247 252 257 261 255 245 236 239 251 255 259 255 250 253 246 246 254 255 248 271 260 264 265 263 258 257 254
217 226 233 234 239 249 247 248 249 245 245 247 246 245 248 254 250 243 252 260 261 258 247 242 245 251 253 253 244 251 258 259 260 254 229 259 263 261 267 262 258 255 254
221 225 231 233 238 251 249 246 244 242 246 250 248 243 240 248 249 239 241 253 262 265 255 244 241 248 251 250 243 243 244 246 261 258 213 233 257 263 263 261 257 252 253
226 230 237 237 238 248 251 248 241 236 247 253 253 246 237 238 244 236 232 240 253 260 262 263 255 256 256 256 244 233 237 243 253 260 220 214 243 250 268 251 253 252 252